Terminal Aerodrome Forecast
Issued by NWS Louisville, KY

Home | Current Version | Previous Version | Text Only | Print | Product List | Glossary On
Versions: 1 2 3 4 5 6 7 8 9 10 11 12 13 14 15 16
000
FTUS43 KLMK 011100
TAFSDF
TAF
KSDF 011124Z 0112/0218 12010KT P6SM OVC070
     FM011700 17012KT 5SM -RA BKN040
     FM011900 18011G21KT 5SM -RA OVC025
     FM020100 24011KT P6SM VCSH OVC021
     FM021000 29015G25KT P6SM VCSH OVC025=

USA.gov is the U.S. government's official web portal to all federal, state and local government web resources and services.